User: anonymous
Location: Cape Cod Imaging Station
(41.7417°N, 70.1583°W)
Time: 17:39:01
(UTC-04:00)
Language:

Cosmos 1508 Rocket - Orbit

View from above orbital plane
View from above orbital plane
View from above satellite
View from above satellite

Ground track
Ground track

The orbit data is extracted from the following two-line orbital elements,

1 14484U 83111B   14211.45032447  .00032756  00000-0  47735-3 0  5823
2 14484 082.8400 287.2869 0210534 119.1856 007.4408 15.33926015579181
Epoch (UTC): 30 July 2014 10:48:28
Eccentricity: 0.0210534
inclination: 82.8400°
perigee height: 320 km
apogee height: 608 km
right ascension of ascending node: 287.2869°
argument of perigee: 119.1856°
revolutions per day: 15.33926015
mean anomaly at epoch: 7.4408°
orbit number at epoch: 57918

The dashed part of the orbit path shows where the satellite is in the earth's shadow,  

DLR